LGS2261 EBBR-EDDB

Flight info

Callsign LGS2261
Flight time N/A
Altitude 35000
Route SPI Y862 KENUM N853 ONUNE DCT LARBU DCT BATEL T207 OGBER OGBER1R
Aircraft B738/M-SDE2E3FGHIRWXY/LB1

Departure

Time 2026-05-06 10:06
Airport Brussels Airport (EBBR)

Arrival

Time N/A
Airport Berlin Brandenburg Airport (EDDB)
Time Latitude Longitude Altitude Speed Heading
2026-05-06 09:25 50.90236 4.47946 136 ft 0 kts 155°
2026-05-06 09:56 50.90240 4.47943 115 ft 3 kts 155°
2026-05-06 09:57 50.90264 4.47923 117 ft 4 kts 145°
2026-05-06 09:57 50.90284 4.47895 117 ft 4 kts 126°
2026-05-06 09:57 50.90293 4.47860 115 ft 4 kts 79°
2026-05-06 09:57 50.90290 4.47844 115 ft 1 kts 65°
2026-05-06 09:58 50.90289 4.47843 115 ft 0 kts 65°
2026-05-06 10:01 50.90297 4.47869 117 ft 6 kts 65°
2026-05-06 10:01 50.90326 4.47967 118 ft 13 kts 65°
2026-05-06 10:02 50.90372 4.48124 118 ft 17 kts 67°
2026-05-06 10:02 50.90424 4.48299 117 ft 19 kts 69°
2026-05-06 10:02 50.90476 4.48490 119 ft 19 kts 65°
2026-05-06 10:02 50.90529 4.48673 118 ft 18 kts 66°
2026-05-06 10:03 50.90582 4.48856 117 ft 20 kts 65°
2026-05-06 10:03 50.90645 4.49073 119 ft 22 kts 65°
2026-05-06 10:03 50.90708 4.49295 121 ft 22 kts 65°
2026-05-06 10:03 50.90770 4.49510 120 ft 21 kts 65°
2026-05-06 10:04 50.90818 4.49676 120 ft 15 kts 65°
2026-05-06 10:04 50.90893 4.49771 119 ft 14 kts 17°
2026-05-06 10:04 50.90976 4.49855 121 ft 15 kts 39°
2026-05-06 10:04 50.91075 4.49936 119 ft 17 kts 21°
2026-05-06 10:05 50.91134 4.49883 118 ft 10 kts 266°
2026-05-06 10:05 50.91119 4.49815 117 ft 0 kts 245°
2026-05-06 10:05 50.91102 4.49758 117 ft 19 kts 245°
2026-05-06 10:05 50.90932 4.49168 118 ft 99 kts 245°
2026-05-06 10:06 50.90545 4.47826 135 ft 165 kts 245°
2026-05-06 10:06 50.89992 4.46148 849 ft 174 kts 246°
2026-05-06 10:06 50.89481 4.44413 1846 ft 174 kts 250°
2026-05-06 10:06 50.88816 4.42776 2631 ft 184 kts 225°
2026-05-06 10:07 50.87720 4.41737 3472 ft 186 kts 197°
2026-05-06 10:07 50.86389 4.41490 3985 ft 208 kts 172°
2026-05-06 10:07 50.84938 4.42182 4242 ft 231 kts 147°
2026-05-06 10:07 50.83725 4.44010 4479 ft 254 kts 117°
2026-05-06 10:08 50.83088 4.46653 5141 ft 262 kts 102°
2026-05-06 10:08 50.82639 4.49481 5970 ft 268 kts 101°
2026-05-06 10:08 50.82184 4.52372 6803 ft 273 kts 102°
2026-05-06 10:08 50.81694 4.55301 7652 ft 277 kts 103°
2026-05-06 10:09 50.81172 4.58252 8529 ft 280 kts 104°
2026-05-06 10:09 50.80810 4.60228 9103 ft 283 kts 104°
2026-05-06 10:09 50.80247 4.63229 9933 ft 286 kts 104°
2026-05-06 10:09 50.79461 4.67367 10467 ft 312 kts 105°
2026-05-06 10:10 50.78810 4.70776 10663 ft 336 kts 105°
2026-05-06 10:10 50.78344 4.73174 10808 ft 351 kts 105°
2026-05-06 10:10 50.77602 4.76928 11312 ft 362 kts 107°
2026-05-06 10:10 50.76655 4.80666 12040 ft 367 kts 113°
2026-05-06 10:11 50.75183 4.85493 13076 ft 370 kts 116°
2026-05-06 10:11 50.74401 4.87964 13576 ft 373 kts 116°
2026-05-06 10:11 50.73236 4.91647 14205 ft 378 kts 116°
2026-05-06 10:11 50.72066 4.95389 14803 ft 383 kts 116°
2026-05-06 10:12 50.70891 4.99193 15393 ft 388 kts 116°
2026-05-06 10:12 50.69706 5.03064 16025 ft 393 kts 116°
2026-05-06 10:12 50.68517 5.06963 16682 ft 397 kts 116°
2026-05-06 10:12 50.67319 5.10903 17398 ft 401 kts 116°
2026-05-06 10:13 50.66106 5.14888 18171 ft 404 kts 116°
2026-05-06 10:13 50.64880 5.18910 18843 ft 409 kts 116°
2026-05-06 10:13 50.63655 5.22925 19432 ft 414 kts 116°
2026-05-06 10:13 50.62407 5.27006 20115 ft 414 kts 116°
2026-05-06 10:14 50.61157 5.31089 20682 ft 416 kts 116°
2026-05-06 10:14 50.59893 5.35211 21199 ft 419 kts 116°
2026-05-06 10:14 50.58621 5.39350 21691 ft 422 kts 116°
2026-05-06 10:14 50.57338 5.43518 22198 ft 425 kts 116°
2026-05-06 10:15 50.56044 5.47717 22694 ft 428 kts 116°
2026-05-06 10:15 50.54743 5.51931 23173 ft 430 kts 116°
2026-05-06 10:15 50.53441 5.56192 23591 ft 434 kts 114°
2026-05-06 10:15 50.52695 5.60787 23968 ft 438 kts 94°
2026-05-06 10:16 50.52887 5.65548 24425 ft 439 kts 78°
2026-05-06 10:16 50.53934 5.70064 24846 ft 442 kts 63°
2026-05-06 10:16 50.55385 5.74336 25234 ft 443 kts 62°
2026-05-06 10:16 50.56869 5.78550 25555 ft 447 kts 62°
2026-05-06 10:17 50.58400 5.82906 25897 ft 450 kts 62°
2026-05-06 10:17 50.59881 5.87180 26257 ft 451 kts 63°
2026-05-06 10:17 50.61370 5.91542 26622 ft 453 kts 63°
2026-05-06 10:17 50.62855 5.95940 26967 ft 455 kts 63°
2026-05-06 10:18 50.64335 6.00351 27299 ft 457 kts 63°
2026-05-06 10:18 50.65822 6.04794 27632 ft 458 kts 63°
2026-05-06 10:18 50.67311 6.09241 27974 ft 460 kts 63°
2026-05-06 10:18 50.68805 6.13709 28280 ft 461 kts 63°
2026-05-06 10:19 50.70323 6.18191 28584 ft 463 kts 63°
2026-05-06 10:19 50.71963 6.22553 28937 ft 464 kts 56°
2026-05-06 10:19 50.73979 6.26528 29399 ft 463 kts 47°
2026-05-06 10:19 50.76251 6.29929 29845 ft 462 kts 43°
2026-05-06 10:20 50.78671 6.33378 30157 ft 462 kts 43°
2026-05-06 10:20 50.81031 6.36730 30332 ft 466 kts 43°
2026-05-06 10:20 50.83445 6.40189 30514 ft 468 kts 43°
2026-05-06 10:20 50.85855 6.43681 30799 ft 469 kts 43°
2026-05-06 10:21 50.88251 6.47182 31104 ft 469 kts 44°
2026-05-06 10:21 50.90647 6.50702 31351 ft 471 kts 44°
2026-05-06 10:21 50.93050 6.54240 31582 ft 473 kts 44°
2026-05-06 10:21 50.95460 6.57794 31831 ft 474 kts 44°
2026-05-06 10:22 50.97884 6.61369 32098 ft 475 kts 44°
2026-05-06 10:22 51.00309 6.64950 32358 ft 476 kts 43°
2026-05-06 10:22 51.02683 6.68630 32583 ft 477 kts 49°
2026-05-06 10:22 51.04750 6.72749 32820 ft 478 kts 54°
2026-05-06 10:23 51.06697 6.77020 33087 ft 478 kts 55°
2026-05-06 10:23 51.08662 6.81315 33333 ft 479 kts 54°
2026-05-06 10:23 51.10651 6.85570 33542 ft 481 kts 54°
2026-05-06 10:23 51.12641 6.89786 33754 ft 482 kts 54°
2026-05-06 10:24 51.14663 6.94065 33990 ft 483 kts 54°
2026-05-06 10:24 51.16679 6.98338 34256 ft 483 kts 54°
2026-05-06 10:24 51.18691 7.02611 34516 ft 481 kts 54°
2026-05-06 10:24 51.20699 7.06889 34750 ft 481 kts 54°
2026-05-06 10:25 51.24731 7.15506 34801 ft 486 kts 54°
2026-05-06 10:25 51.28763 7.24155 34796 ft 483 kts 54°
2026-05-06 10:26 51.32756 7.32747 34787 ft 480 kts 54°
2026-05-06 10:26 51.36693 7.41335 34790 ft 477 kts 57°
2026-05-06 10:27 51.39764 7.50688 34803 ft 474 kts 66°
2026-05-06 10:27 51.42552 7.60251 34803 ft 474 kts 66°
2026-05-06 10:28 51.45362 7.69847 34804 ft 477 kts 66°
2026-05-06 10:28 51.48218 7.79485 34805 ft 479 kts 66°
2026-05-06 10:29 51.51079 7.89119 34804 ft 483 kts 66°
2026-05-06 10:29 51.53969 7.98885 34795 ft 485 kts 66°
2026-05-06 10:30 51.56860 8.08704 34795 ft 487 kts 66°
2026-05-06 10:30 51.59754 8.18574 34797 ft 489 kts 66°
2026-05-06 10:31 51.62643 8.28471 34786 ft 488 kts 66°
2026-05-06 10:31 51.65524 8.38382 34794 ft 487 kts 66°
2026-05-06 10:32 51.68386 8.48265 34795 ft 486 kts 66°
2026-05-06 10:32 51.71230 8.58133 34795 ft 484 kts 66°
2026-05-06 10:33 51.74043 8.67930 34804 ft 483 kts 66°
2026-05-06 10:33 51.76857 8.77773 34794 ft 483 kts 66°
2026-05-06 10:34 51.79665 8.87634 34801 ft 483 kts 66°
2026-05-06 10:34 51.82467 8.97519 34788 ft 485 kts 66°
2026-05-06 10:35 51.85267 9.07438 34774 ft 485 kts 66°
2026-05-06 10:35 51.88063 9.17377 34781 ft 485 kts 66°
2026-05-06 10:36 51.91196 9.27051 34784 ft 486 kts 60°
2026-05-06 10:36 51.94631 9.36413 34788 ft 487 kts 59°
2026-05-06 10:37 51.98093 9.45864 34783 ft 488 kts 60°
2026-05-06 10:37 52.01511 9.55398 34793 ft 488 kts 60°
2026-05-06 10:38 52.04904 9.64978 34801 ft 489 kts 60°
2026-05-06 10:38 52.08286 9.74578 34801 ft 489 kts 60°
2026-05-06 10:39 52.11641 9.84128 34803 ft 489 kts 60°
2026-05-06 10:39 52.15010 9.93752 34810 ft 490 kts 60°
2026-05-06 10:40 52.18384 10.03425 34809 ft 491 kts 60°
2026-05-06 10:40 52.21745 10.13099 34802 ft 491 kts 60°
2026-05-06 10:41 52.25105 10.22807 34814 ft 490 kts 60°
2026-05-06 10:41 52.28464 10.32551 34800 ft 492 kts 60°
2026-05-06 10:42 52.31812 10.42300 34798 ft 492 kts 60°
2026-05-06 10:42 52.35149 10.52064 34537 ft 495 kts 61°
2026-05-06 10:43 52.36806 10.56982 34164 ft 495 kts 61°
2026-05-06 10:43 52.38430 10.61877 33869 ft 494 kts 62°
2026-05-06 10:43 52.40043 10.66822 33648 ft 490 kts 62°
2026-05-06 10:44 52.43158 10.76674 33413 ft 486 kts 63°
2026-05-06 10:44 52.44674 10.81618 33541 ft 486 kts 64°
2026-05-06 10:44 52.46176 10.86574 33754 ft 487 kts 61°
2026-05-06 10:44 52.48005 10.91319 33424 ft 495 kts 52°
2026-05-06 10:45 52.50202 10.95687 32944 ft 497 kts 46°
2026-05-06 10:45 52.52619 10.99685 32400 ft 490 kts 41°